Flag for Cook Islands Weather past 2 weeks in Rarotonga, Cook Islands

Now
73 °F

Partly cloudy.


Feels Like: 72 °F
Forecast: 68 / 77 °F
Wind: 6 mph from East

Location: Rarotonga

Current Time: Sep 17, 2014 at 4:44:18 AM

Latest Report: Sep 17, 2014 at 4:00 AM


Visibility: N/A

Pressure: 29.95 "Hg

Humidity: 89%

Dew point: 70 °F

Location of RarotongaLocation

Historic Weather in Rarotonga — Graph

°F

Rarotonga temperature yesterday

Maximum temperature yesterday: 77 °F (at 11:00 AM)
Minimum temperature yesterday: 63 °F (at 5:00 AM)
Average temperature yesterday: 71 °F

Past Weeks' High & Low Weather Summary

 TemperatureHumidityPressure
High82 °F (Sep 7, 1:00 PM)100% (Sep 7, 10:00 PM)30.12 "Hg (Sep 7, 10:00 PM)
Low63 °F (Sep 15, 4:00 AM)54% (Sep 9, 12:00 PM)29.80 "Hg (Sep 8, 4:00 AM)
Average73 °F76%29.99 "Hg
* Reported Sep 2 3:00 AM — Sep 17 3:00 AM, Rarotonga, Weather by CustomWeather, © 2014

Note: Actual official high and low records may vary slightly from our data, if they occured in-between our weather recording intervals... More about our weather records

Advertising

Rarotonga weather history for previous 24 hours

 ConditionsComfort  
Time TempWeatherWind HumidityBarometerVisibility
3:00 AM
Sep 17
73 °FMild.5 mph83%29.95 "HgN/A
2:00 AM73 °FPassing clouds.7 mph83%29.95 "HgN/A
1:00 AM73 °FPassing clouds.6 mph83%29.98 "HgN/A
12:00 AM73 °FPassing clouds.7 mph83%29.98 "HgN/A
11:00 PM
Sep 16
73 °FPassing clouds.6 mph83%30.01 "HgN/A
10:00 PM72 °FPassing clouds.5 mph88%30.01 "HgN/A
9:00 PM72 °FPassing clouds.3 mph83%30.01 "HgN/A
8:00 PM72 °FPassing clouds.3 mph83%29.98 "HgN/A
7:00 PM72 °FPassing clouds.5 mph83%29.98 "HgN/A
6:00 PM75 °FScattered clouds.8 mph74%29.98 "HgN/A
5:00 PM77 °FPassing clouds.8 mph69%29.98 "HgN/A
4:00 PM77 °FScattered clouds.8 mph69%29.89 "HgN/A
3:00 PM77 °FPassing clouds.9 mph69%29.95 "HgN/A
1:00 PM77 °FPassing clouds.8 mph69%29.98 "HgN/A
12:00 PM77 °FPassing clouds.10 mph65%30.01 "HgN/A
11:00 AM77 °FPassing clouds.10 mph65%30.04 "HgN/A
10:00 AM75 °FScattered clouds.5 mph69%30.04 "HgN/A
9:00 AM75 °FPassing clouds.1 mph69%30.04 "HgN/A
8:00 AM70 °FPassing clouds.1 mph88%30.01 "HgN/A
7:00 AM64 °FPassing clouds.2 mph94%30.01 "HgN/A
6:00 AM63 °FPassing clouds.2 mph100%29.98 "HgN/A
5:00 AM63 °FPassing clouds.3 mph100%29.98 "HgN/A
4:00 AM64 °FPassing clouds.2 mph94%29.98 "HgN/A
Weather by CustomWeather, © 2014

See weather overviewHow to use our weather pages